Red Wing, WI

8:34 PM CDT on April 30, 2017 (GMT -0500)
Red Wing Municipal

Weather History for KRGK - September, 2012

Change the Weather History Date:

Monday, September 17, 2012

  Actual Average Record
Temperature  
Mean Temperature 55 °F -  
Max Temperature 66 °F 69 °F 87 °F (2007)
Min Temperature 44 °F 48 °F 42 °F (1996)
Degree Days  
Heating Degree Days 10    
Growing Degree Days 5 (Base 50)    
Moisture  
Dew Point 43 °F    
Average Humidity 62    
Maximum Humidity 94    
Minimum Humidity 36    
Precipitation  
Precipitation 0.00 in - - ()
Sea Level Pressure  
Sea Level Pressure 29.95 in    
Wind  
Wind Speed 6 mph (NNW)    
Max Wind Speed 15 mph    
Max Gust Speed 22 mph    
Visibility 10 miles    
Events Rain , Thunderstorm    
Averages and records for this station are not official NWS values.
T = Trace of Precipitation, MM = Missing Value Source: NWS Daily Summary

Daily Weather History Graph

Daily Weather History Graph

Search for Another Location

Airport or City:

Trip Planner

Search our weather history database for the weather conditions in past years. The results will help you decide how hot, cold, wet, or windy it might be!

Date:

Astronomy

Sep. 17, 2012 Rise Set
Actual Time 6:51 AM CDT 7:15 PM CDT
Civil Twilight 6:22 AM CDT 7:45 PM CDT
Nautical Twilight 5:48 AM CDT 8:19 PM CDT
Astronomical Twilight 5:12 AM CDT 8:54 PM CDT
Moon 8:48 AM CDT (9/17) 7:50 PM CDT (9/17)
Length of Visible Light 13h 22m
Length of Day
12h 24m
Waxing Crescent, 3% of the Moon is Illuminated
Sep 17
Waxing Crescent
Sep 22
First Quarter
Sep 29
Full
Oct 8
Last Quarter
Oct 15
New

Hourly Weather History & Observations

Time (CDT) Temp. Windchill Dew Point Humidity Pressure Visibility Wind Dir Wind Speed Gust Speed Precip Events Conditions
12:15 AM 66.2 °F - 44.6 °F 46% 29.92 in 10.0 mi North 10.4 mph 19.6 mph N/A   Clear
12:36 AM 64.4 °F - 44.6 °F 49% 29.92 in 10.0 mi North 5.8 mph - N/A   Clear
1:15 AM 62.6 °F - 44.6 °F 52% 29.92 in 10.0 mi NW 3.5 mph - N/A   Scattered Clouds
1:36 AM 62.6 °F - 44.6 °F 52% 29.92 in 10.0 mi NW 3.5 mph - N/A   Clear
1:55 AM 62.6 °F - 46.4 °F 55% 29.92 in 10.0 mi NW 3.5 mph - N/A   Scattered Clouds
2:15 AM 60.8 °F - 46.4 °F 59% 29.91 in 10.0 mi Calm Calm - N/A   Scattered Clouds
2:35 AM 60.8 °F - 46.4 °F 59% 29.92 in 10.0 mi WNW 3.5 mph - N/A   Clear
2:55 AM 60.8 °F - 46.4 °F 59% 29.93 in 10.0 mi WNW 3.5 mph - N/A   Scattered Clouds
3:15 AM 60.8 °F - 46.4 °F 59% 29.94 in 10.0 mi NW 6.9 mph - N/A   Overcast
3:35 AM 60.8 °F - 46.4 °F 59% 29.95 in 10.0 mi NW 6.9 mph - N/A   Overcast
4:15 AM 59.0 °F - 46.4 °F 63% 29.95 in 10.0 mi NNW 6.9 mph - N/A   Overcast
4:55 AM 57.2 °F - 48.2 °F 72% 29.93 in 10.0 mi North 4.6 mph - N/A   Overcast
5:15 AM 57.2 °F - 48.2 °F 72% 29.94 in 10.0 mi North 3.5 mph - N/A   Overcast
5:35 AM 57.2 °F - 48.2 °F 72% 29.94 in 10.0 mi Calm Calm - N/A Rain , Thunderstorm Light Thunderstorms and Rain
5:55 AM 57.2 °F - 48.2 °F 72% 29.94 in 10.0 mi NW 4.6 mph - N/A Rain , Thunderstorm Light Thunderstorms and Rain
6:15 AM 55.4 °F - 48.2 °F 77% 29.95 in 10.0 mi WNW 3.5 mph - N/A   Mostly Cloudy
6:35 AM 53.6 °F - 50.0 °F 88% 29.95 in 10.0 mi North 5.8 mph - N/A Rain Light Rain
7:15 AM 53.6 °F - 51.8 °F 94% 29.94 in 10.0 mi NNW 4.6 mph - N/A Rain Light Rain
7:35 AM 53.6 °F - 51.8 °F 94% 29.95 in 10.0 mi Calm Calm - N/A   Mostly Cloudy
7:55 AM 53.6 °F - 51.8 °F 94% 29.95 in 10.0 mi NNW 4.6 mph - N/A   Light Drizzle
7:56 AM 53.6 °F - 51.8 °F 94% 29.95 in 10.0 mi NNW 3.5 mph - N/A   Overcast
8:35 AM 53.6 °F - 50.0 °F 88% 29.95 in 10.0 mi NNW 4.6 mph - N/A   Mostly Cloudy
8:55 AM 53.6 °F - 48.2 °F 82% 29.96 in 10.0 mi NNW 3.5 mph - N/A Rain Light Rain
9:15 AM 53.6 °F - 48.2 °F 82% 29.96 in 10.0 mi NNW 5.8 mph - N/A Rain Light Rain
9:35 AM 53.6 °F - 48.2 °F 82% 29.97 in 10.0 mi NW 4.6 mph - N/A   Mostly Cloudy
10:35 AM 51.8 °F - 46.4 °F 82% 29.98 in 10.0 mi NW 6.9 mph - N/A Rain Light Rain
10:55 AM 51.8 °F - 48.2 °F 88% 29.98 in 10.0 mi NW 4.6 mph - N/A Rain Light Rain
11:15 AM 53.6 °F - 48.2 °F 82% 29.97 in 10.0 mi NNW 5.8 mph - N/A   Drizzle
11:35 AM 53.6 °F - 48.2 °F 82% 29.97 in 10.0 mi NW 5.8 mph - N/A   Clear
11:55 AM 53.6 °F - 46.4 °F 77% 29.97 in 10.0 mi NW 10.4 mph - N/A   Scattered Clouds
12:15 PM 53.6 °F - 46.4 °F 77% 29.97 in 10.0 mi NNW 6.9 mph - N/A   Mostly Cloudy
12:35 PM 55.4 °F - 46.4 °F 72% 29.98 in 10.0 mi NNW 4.6 mph - N/A   Scattered Clouds
12:55 PM 57.2 °F - 46.4 °F 67% 29.98 in 10.0 mi NW 9.2 mph - N/A   Scattered Clouds
1:15 PM 57.2 °F - 44.6 °F 63% 29.97 in 10.0 mi North 9.2 mph 17.3 mph N/A   Scattered Clouds
1:35 PM 59.0 °F - 44.6 °F 59% 29.97 in 10.0 mi NNW 10.4 mph - N/A   Scattered Clouds
1:55 PM 60.8 °F - 44.6 °F 55% 29.96 in 10.0 mi NNW 10.4 mph 17.3 mph N/A   Scattered Clouds
2:15 PM 60.8 °F - 42.8 °F 52% 29.95 in 10.0 mi NNW 8.1 mph - N/A   Mostly Cloudy
2:35 PM 60.8 °F - 41.0 °F 48% 29.95 in 10.0 mi NNW 9.2 mph 18.4 mph N/A   Scattered Clouds
2:55 PM 62.6 °F - 39.2 °F 42% 29.95 in 10.0 mi North 11.5 mph 20.7 mph N/A   Scattered Clouds
3:15 PM 62.6 °F - 37.4 °F 39% 29.94 in 10.0 mi North 10.4 mph 19.6 mph N/A   Scattered Clouds
3:35 PM 64.4 °F - 37.4 °F 37% 29.93 in 10.0 mi NW 15.0 mph 20.7 mph N/A   Mostly Cloudy
3:55 PM 64.4 °F - 39.2 °F 40% 29.93 in 10.0 mi NNW 8.1 mph 17.3 mph N/A   Scattered Clouds
4:15 PM 62.6 °F - 35.6 °F 37% 29.94 in 10.0 mi NNW 12.7 mph 21.9 mph N/A   Scattered Clouds
4:35 PM 60.8 °F - 33.8 °F 36% 29.94 in 10.0 mi NW 12.7 mph 19.6 mph N/A   Clear
4:55 PM 60.8 °F - 33.8 °F 36% 29.94 in 10.0 mi NNW 11.5 mph 19.6 mph N/A   Scattered Clouds
5:15 PM 60.8 °F - 35.6 °F 39% 29.94 in 10.0 mi North 10.4 mph 17.3 mph N/A   Mostly Cloudy
5:35 PM 60.8 °F - 33.8 °F 36% 29.94 in 10.0 mi NNW 6.9 mph 17.3 mph N/A   Scattered Clouds
5:55 PM 59.0 °F - 35.6 °F 42% 29.94 in 10.0 mi NW 8.1 mph 16.1 mph N/A   Scattered Clouds
6:15 PM 60.8 °F - 35.6 °F 39% 29.94 in 10.0 mi NW 10.4 mph - N/A   Scattered Clouds
6:35 PM 59.0 °F - 35.6 °F 42% 29.95 in 10.0 mi NW 8.1 mph - N/A   Scattered Clouds
6:55 PM 57.2 °F - 35.6 °F 44% 29.96 in 10.0 mi NNW 8.1 mph - N/A   Clear
7:15 PM 55.4 °F - 35.6 °F 47% 29.96 in 10.0 mi NW 5.8 mph - N/A   Clear
7:35 PM 55.4 °F - 35.6 °F 47% 29.96 in 10.0 mi NNW 5.8 mph - N/A   Clear
7:55 PM 53.6 °F - 35.6 °F 51% 29.96 in 10.0 mi NNW 4.6 mph - N/A   Clear
8:15 PM 51.8 °F - 37.4 °F 58% 29.96 in 10.0 mi NNW 3.5 mph - N/A   Clear
8:35 PM 51.8 °F - 37.4 °F 58% 29.97 in 10.0 mi NNW 5.8 mph - N/A   Clear
9:15 PM 50.0 °F - 37.4 °F 62% 29.97 in 10.0 mi NNW 5.8 mph - N/A   Scattered Clouds
9:35 PM 48.2 °F - 37.4 °F 66% 29.97 in 10.0 mi North 4.6 mph - N/A   Scattered Clouds
9:55 PM 48.2 °F - 37.4 °F 66% 29.98 in 10.0 mi NNW 4.6 mph - N/A   Clear
10:15 PM 48.2 °F - 37.4 °F 66% 29.98 in 10.0 mi North 3.5 mph - N/A   Mostly Cloudy
10:35 PM 48.2 °F - 37.4 °F 66% 29.98 in 10.0 mi North 4.6 mph - N/A   Scattered Clouds
10:55 PM 48.2 °F - 35.6 °F 62% 29.98 in 10.0 mi North 5.8 mph - N/A   Clear
11:15 PM 46.4 °F 44.3 °F 35.6 °F 66% 29.98 in 10.0 mi North 4.6 mph - N/A   Clear
11:35 PM 44.6 °F - 35.6 °F 71% 29.98 in 10.0 mi Calm Calm - N/A   Clear
11:56 PM 44.6 °F - 35.6 °F 71% 29.98 in 10.0 mi Calm Calm - N/A   Clear